Regional Weather Roundup
Issued by NWS Upton, NY

Current Version | Previous Version | Text Only | Print | Product List | Glossary On
Versions: 1 2 3 4 5 6 7 8 9 10 11 12 13 14 15 16 17 18 19 20 21 22 23 24 25 26 27 28 29 30 31 32 33 34 35 36 37 38 39 40 41 42 43 44 45 46 47 48 49 50
878
ASUS41 KOKX 220809
RWROKX

REGIONAL WEATHER ROUNDUP
NATIONAL WEATHER SERVICE NEW YORK NY
400 AM EDT THU JUN 22 2017

NOTE: "FAIR" INDICATES FEW OR NO CLOUDS BELOW 12,000 FEET WITH NO
SIGNIFICANT WEATHER AND/OR OBSTRUCTIONS TO VISIBILITY.

NYZ071-072-176-178-NJZ106-104-220900-
NEW YORK CITY METRO AREA

CITY           SKY/WX    TMP DP  RH WIND       PRES   REMARKS
Central Park   CLEAR     69  62  78 N3        30.00R
Bronx Bot Gard   N/A     66  57  72 CALM      29.97S
LaGuardia APRT CLEAR     71  58  63 N6        29.96R
Kennedy INTL   PTCLDY    69  64  84 N7        29.97R
Breezy Point     N/A     64 N/A N/A W6          N/A
Newark/Liberty CLEAR     69  60  73 N3        29.97R
Teterboro      CLEAR     66  58  75 N3        29.96S
$$

NYZ177-179-078>081-220900-
LONG ISLAND NEW YORK

CITY           SKY/WX    TMP DP  RH WIND       PRES   REMARKS
Jones Beach      N/A     66 N/A N/A N3          N/A
Matinecock PT  NOT AVBL
Farmingdale    NOT AVBL
MacArthur/ISP  CLEAR     63  61  93 CALM      29.97R
Shirley        CLEAR     62  61  96 CALM      29.98R
Mt Sinai Harb    N/A     63 N/A N/A MISG        N/A
Westhampton    CLEAR     55  52  89 CALM      29.99R
East Hampton   FAIR      59  58  97 CALM      29.96R
Montauk          N/A     61  58  90 CALM      29.97R
$$

NYZ052-065-067-220900-
HUDSON VALLEY

CITY           SKY/WX    TMP DP  RH WIND       PRES   REMARKS
White Plains   CLEAR     63  55  77 NW5       29.98R
Larchmont Harb   N/A     64 N/A N/A NW3         N/A
Croton O-T Hud   N/A     63 N/A N/A NE3         N/A
Newburgh       CLEAR     59  57  94 CALM      30.01R
Montgomery     CLEAR     56  54  93 CALM      29.99S
Poughkeepsie   CLEAR     56  54  93 CALM      29.98R
Albany         CLEAR     55  50  83 S3        29.99R
$$

NJZ001-105-106-008-010-013-015-019>022-104-220900-
NEW JERSEY

CITY           SKY/WX    TMP DP  RH WIND       PRES   REMARKS
Newark/Liberty CLEAR     69  60  73 N3        29.97R
Teterboro      CLEAR     66  58  75 N3        29.96S
Caldwell       CLEAR     63  60  90 CALM      29.99R
Somerville     CLEAR     60  59  96 CALM      29.97R FOG
Linden         FAIR      66  62  85 CALM      29.97S
Perth Amboy      N/A     66 N/A N/A W5          N/A
Sussex         CLEAR     55  55 100 CALM      30.00R
Andover          N/A     57  56  96 CALM      30.00S
Trenton        PTCLDY    62  61  96 N5        29.97S
Millville      MOCLDY    67  67 100 CALM      29.98R
Atlantic City  CLOUDY    67  65  93 CALM      29.98S
Wrightstown    CLOUDY    64  63  97 CALM      29.96R
Toms River     CLOUDY    64  63  96 CALM      29.99R
Belmar         CLEAR     63  63 100 W6        29.98S
$$

PAZ047>061-062-071-220900-
EASTERN PENNSYLVANIA

CITY           SKY/WX    TMP DP  RH WIND       PRES   REMARKS
Philadelphia   CLOUDY    70  67  90 W6        29.98S
Allentown      CLEAR     61  58  90 CALM      29.99S
Scranton       CLEAR     57  54  89 E5        30.02S
$$

CTZ002-004>006-009-010-012-RIZ004-006-007-MAZ004-011-015-220900-
SOUTHERN NEW ENGLAND
 IN CT

CITY           SKY/WX    TMP DP  RH WIND       PRES   REMARKS
Bradley INTL   CLEAR     59  53  80 W3        29.97S
Hartford       CLEAR     61  60  97 CALM      29.97R
Danbury        CLEAR     56  56 100 CALM      30.00R
Wtrbury/Oxford PTCLDY    57  48  72 N5        29.99S
Bridgeport     PTCLDY    68  56  65 N6        29.97R
Meriden        CLEAR     57  55  93 CALM      29.98R
New Haven      NOT AVBL
Chester        FAIR      61  55  82 CALM      29.98R
Groton         CLEAR     61  57  87 CALM      29.95R
Wilimantic     CLEAR     59  57  93 CALM      29.97R

 IN RI

CITY           SKY/WX    TMP DP  RH WIND       PRES   REMARKS
Providence     CLEAR     62  56  80 W6        29.95R
Block Island   PTCLDY    64  57  78 NW6       29.96R
Westerly       CLEAR     65  56  72 NW6       29.96R
 IN MA

CITY           SKY/WX    TMP DP  RH WIND       PRES   REMARKS
Boston         CLEAR     66  52  60 W9        29.92S
Worcester      CLEAR     60  48  64 W13       29.95S
Westfield      NOT AVBL
Provincetown   CLEAR     60  54  80 W7        29.92S
Nantucket      CLEAR     60  60 100 NW5       29.93R
$$

ANZ330-335-338-340-345-350-353-355-220900-
COASTAL MARINE OBSERVATIONS


STATION/POSITION TIME  SKY/WX   TEMP    WIND        PRES    VSBY  WAVE
                                AIR SEA DIR/SP/G                  HT/PER
                 (UTC)          (F)     (DEG/KT/KT) (MB)    (MI)  (FT/S)
NY HARB ENTRANCE 0750            67 64  260/  4/  6 1014.6          3/ 6
20 S FIRE ISLAND 0750            67 67  280/  8/ 10 1014.1          3/ 6
GREAT SOUTH BAY  0730            68 75  340/  8/  8   N/A
23 SSW MONTAUK P 0750            64 62              1014.7          4/ 6
15 E BARNEGAT LI 0730               65                N/A           3/ 6
HUDSON CANYON    0650            67 65  260/  8/  8 1014.3          3/ 6
KINGS POINT      0724            67 68     CALM     1014.7
EXECUTION ROCKS  0745            66      10/  4/  6   N/A
CENTRAL LI SOUND 0730            68     340/  4/  6   N/A           1
EASTERN LI SOUND NOT AVBL
ROBBINS REEF     0736                   310/  5/  5 1015.2
$$


>>>>>>>>>>>>>>>>>>>>>>>>>>>> KEY <<<<<<<<<<<<<<<<<<<<<<<<<<<
>                                                          <
>     SKY/WX - Sky Condition/Present Weather               <
>     TMP    - Temperature in Fahrenheit                   <
>     DP     - Dew Point in Fahrenheit                     <
>     RH     - Relative Humidity in Percent                <
>     WIND   - Direction (from) and Speed in MPH           <
>     PRES   - Mean Sea Level Pressure (inches of Hg)      <
>     WCI    - Wind Chill Index                            <
>     VSB    - VISIBILITY IN MILES                         <
>     HX     - HEAT INDEX                                  <
>     TC     - TEMPERATURE IN CELSIUS                      <
>     VRB    - VARIABLE WIND DIRECTION                     <
>                                                          <
>>>>>>>>>>>>>>>>>>>>>>>>>>>> KEY <<<<<<<<<<<<<<<<<<<<<<<<<<<




USA.gov is the U.S. government's official web portal to all federal, state and local government web resources and services.